| time (UTC) | temp F | wind direction | speed MPH | gust MPH | rain 1hr in | rain 24hr in | rain mn in | humidity % | barometer mb |
| 20260831054630 | 57 | 243 | 2.0 | 6.0 | 0.00 | 0.06 | 0.01 | 94 | 1018.2 |
| 20260831053048 | 57 | 207 | 1.0 | 7.0 | 0.00 | 0.06 | 0.01 | 93 | 1018.1 |
| 20260831051553 | 57 | 276 | 2.0 | 8.0 | 0.00 | 0.06 | 0.01 | 94 | 1017.8 |
| 20260831050058 | 57 | 225 | 1.0 | 8.0 | 0.00 | 0.06 | 0.01 | 94 | 1017.8 |
| 20260831044550 | 57 | 290 | 3.0 | 8.0 | 0.00 | 0.06 | 0.01 | 94 | 1017.6 |
| 20260831041616 | 57 | 230 | 2.0 | 8.0 | 0.00 | 0.06 | 0.01 | 94 | 1017.7 |
| 20260831040104 | 57 | 205 | 2.0 | 7.0 | 0.00 | 0.06 | 0.01 | 94 | 1017.7 |
| 20260831034603 | 57 | 244 | 1.0 | 7.0 | 0.00 | 0.06 | 0.01 | 94 | 1017.7 |
| 20260831033050 | 57 | 262 | 2.0 | 9.0 | 0.00 | 0.06 | 0.01 | 94 | 1017.9 |
| 20260831031612 | 57 | 248 | 3.0 | 7.0 | 0.00 | 0.06 | 0.01 | 94 | 1017.9 |
| 20260831030057 | 57 | 236 | 2.0 | 9.0 | 0.01 | 0.06 | 0.01 | 94 | 1017.9 |
| 20260831024557 | 57 | 257 | 2.0 | 10.0 | 0.01 | 0.06 | 0.01 | 94 | 1017.9 |
| 20260831023107 | 57 | 276 | 2.0 | 7.0 | 0.01 | 0.06 | 0.01 | 94 | 1017.9 |
| 20260831021605 | 58 | 292 | 1.0 | 7.0 | 0.01 | 0.06 | 0.01 | 94 | 1018.0 |
| 20260831020037 | 58 | 258 | 2.0 | 10.0 | 0.00 | 0.06 | 0.00 | 95 | 1017.9 |
| 20260831014552 | 57 | 209 | 1.0 | 6.0 | 0.00 | 0.06 | 0.00 | 96 | 1017.7 |
| 20260831013102 | 57 | 242 | 2.0 | 9.0 | 0.00 | 0.06 | 0.00 | 96 | 1017.8 |
| 20260831011555 | 57 | 276 | 1.0 | 7.0 | 0.00 | 0.06 | 0.00 | 96 | 1017.8 |
| 20260831010106 | 57 | 172 | 1.0 | 6.0 | 0.00 | 0.06 | 0.00 | 96 | 1017.8 |
| 20260831004545 | 58 | 221 | 1.0 | 4.0 | 0.00 | 0.06 | 0.00 | 96 | 1017.7 |
| 20260831003050 | 58 | 255 | 1.0 | 6.0 | 0.00 | 0.06 | 0.00 | 96 | 1017.6 |
| 20260831001552 | 58 | 144 | 0.0 | 5.0 | 0.00 | 0.06 | 0.00 | 96 | 1017.6 |
| 20260830234549 | 59 | 269 | 0.0 | 5.0 | 0.00 | 0.06 | 0.00 | 96 | 1017.6 |
| 20260830233102 | 59 | 266 | 1.0 | 7.0 | 0.00 | 0.06 | 0.00 | 96 | 1017.6 |
| 20260830231550 | 59 | 231 | 1.0 | 8.0 | 0.00 | 0.06 | 0.00 | 97 | 1017.7 |
| 20260830230105 | 59 | 217 | 0.0 | 4.0 | 0.00 | 0.06 | 0.00 | 97 | 1017.6 |
| 20260830224554 | 59 | 161 | 0.0 | 2.0 | 0.00 | 0.06 | 0.00 | 96 | 1017.7 |
| 20260830223107 | 59 | 238 | 0.0 | 3.0 | 0.00 | 0.06 | 0.00 | 96 | 1017.7 |
| 20260830221607 | 60 | 233 | 0.0 | 5.0 | 0.00 | 0.06 | 0.00 | 96 | 1017.5 |
| 20260830214544 | 60 | 245 | 0.0 | 4.0 | 0.00 | 0.06 | 0.06 | 97 | 1017.0 |
| 20260830213106 | 60 | 211 | 0.0 | 4.0 | 0.00 | 0.06 | 0.06 | 97 | 1017.0 |
| 20260830211557 | 60 | 192 | 0.0 | 2.0 | 0.00 | 0.06 | 0.06 | 96 | 1016.9 |
| 20260830210048 | 61 | 243 | 0.0 | 3.0 | 0.00 | 0.06 | 0.06 | 96 | 1016.9 |
| 20260830204606 | 61 | 210 | 0.0 | 5.0 | 0.00 | 0.06 | 0.06 | 96 | 1016.8 |
| 20260830203101 | 61 | 199 | 1.0 | 4.0 | 0.00 | 0.06 | 0.06 | 96 | 1016.5 |
| 20260830201603 | 61 | 219 | 1.0 | 7.0 | 0.00 | 0.06 | 0.06 | 96 | 1016.5 |
| 20260830200106 | 61 | 222 | 1.0 | 6.0 | 0.00 | 0.06 | 0.06 | 96 | 1016.5 |
| 20260830194547 | 61 | 282 | 0.0 | 6.0 | 0.00 | 0.06 | 0.06 | 96 | 1016.5 |
| 20260830193109 | 61 | 284 | 0.0 | 6.0 | 0.01 | 0.06 | 0.06 | 95 | 1016.4 |
| 20260830191645 | 62 | 285 | 0.0 | 3.0 | 0.06 | 0.06 | 0.06 | 94 | 1016.2 |
| 20260830190103 | 62 | 226 | 0.0 | 2.0 | 0.06 | 0.06 | 0.06 | 93 | 1016.1 |
| 20260830184550 | 63 | 252 | 0.0 | 4.0 | 0.06 | 0.06 | 0.06 | 92 | 1016.0 |
| 20260830183059 | 64 | 240 | 0.0 | 4.0 | 0.05 | 0.05 | 0.05 | 88 | 1016.0 |
| 20260830181545 | 66 | 246 | 0.0 | 5.0 | 0.00 | 0.00 | 0.00 | 82 | 1015.8 |
| 20260830180059 | 67 | 271 | 3.0 | 5.0 | 0.00 | 0.00 | 0.00 | 79 | 1015.3 |
| 20260830174559 | 69 | 233 | 1.0 | 6.0 | 0.00 | 0.00 | 0.00 | 78 | 1015.1 |
| 20260830173107 | 69 | 257 | 2.0 | 7.0 | 0.00 | 0.00 | 0.00 | 81 | 1015.1 |
| 20260830171548 | 71 | 258 | 3.0 | 8.0 | 0.00 | 0.00 | 0.00 | 79 | 1014.8 |
| 20260830170108 | 70 | 254 | 1.0 | 8.0 | 0.00 | 0.00 | 0.00 | 80 | 1014.8 |
| 20260830164611 | 72 | 219 | 0.0 | 6.0 | 0.00 | 0.00 | 0.00 | 81 | 1014.6 |
| 20260830163107 | 73 | 262 | 0.0 | 6.0 | 0.00 | 0.00 | 0.00 | 81 | 1014.5 |
| 20260830161612 | 70 | 117 | 1.0 | 6.0 | 0.00 | 0.00 | 0.00 | 85 | 1014.4 |
| 20260830160047 | 70 | 349 | 4.0 | 12.0 | 0.00 | 0.00 | 0.00 | 81 | 1014.1 |
| 20260830154559 | 73 | 276 | 5.0 | 18.0 | 0.00 | 0.00 | 0.00 | 74 | 1013.7 |
| 20260830153107 | 78 | 261 | 0.0 | 2.0 | 0.00 | 0.00 | 0.00 | 67 | 1013.3 |
| 20260830151544 | 78 | 262 | 0.0 | 2.0 | 0.00 | 0.00 | 0.00 | 68 | 1013.4 |
| 20260830150105 | 78 | 244 | 0.0 | 6.0 | 0.00 | 0.00 | 0.00 | 67 | 1013.4 |
| 20260830144545 | 80 | 292 | 3.0 | 6.0 | 0.00 | 0.00 | 0.00 | 64 | 1013.4 |
| 20260830143101 | 79 | 261 | 1.0 | 7.0 | 0.00 | 0.00 | 0.00 | 66 | 1013.6 |
| 20260830141544 | 79 | 300 | 0.0 | 5.0 | 0.00 | 0.00 | 0.00 | 66 | 1013.6 |
| 20260830140108 | 78 | 237 | 1.0 | 4.0 | 0.00 | 0.00 | 0.00 | 66 | 1014.0 |
| 20260830134556 | 79 | 240 | 0.0 | 2.0 | 0.00 | 0.00 | 0.00 | 65 | 1014.0 |
| 20260830133100 | 79 | 257 | 0.0 | 4.0 | 0.00 | 0.00 | 0.00 | 65 | 1014.3 |
| 20260830131507 | 82 | 244 | 0.0 | 5.0 | 0.00 | 0.00 | 0.00 | 60 | 1014.4 |
| 20260830130051 | 82 | 125 | 0.0 | 4.0 | 0.00 | 0.00 | 0.00 | 61 | 1014.5 |
| 20260830124602 | 80 | 258 | 1.0 | 6.0 | 0.00 | 0.00 | 0.00 | 65 | 1014.7 |
| 20260830123103 | 78 | 183 | 0.0 | 4.0 | 0.00 | 0.00 | 0.00 | 66 | 1014.8 |
| 20260830120106 | 80 | 356 | 0.0 | 4.0 | 0.00 | 0.00 | 0.00 | 64 | 1015.2 |
| 20260830114558 | 78 | 240 | 1.0 | 6.0 | 0.00 | 0.00 | 0.00 | 67 | 1015.3 |
| 20260830113054 | 77 | 196 | 1.0 | 7.0 | 0.00 | 0.00 | 0.00 | 68 | 1015.3 |
| 20260830111601 | 78 | 240 | 1.0 | 6.0 | 0.00 | 0.00 | 0.00 | 66 | 1015.4 |
| 20260830110050 | 77 | 212 | 2.0 | 7.0 | 0.00 | 0.00 | 0.00 | 67 | 1015.6 |
| 20260830104543 | 76 | 243 | 1.0 | 8.0 | 0.00 | 0.00 | 0.00 | 68 | 1015.7 |
| 20260830103058 | 75 | 240 | 2.0 | 7.0 | 0.00 | 0.00 | 0.00 | 71 | 1015.9 |
| 20260830101547 | 74 | 219 | 1.0 | 5.0 | 0.00 | 0.00 | 0.00 | 73 | 1016.1 |
| 20260830100116 | 75 | 276 | 1.0 | 7.0 | 0.00 | 0.00 | 0.00 | 74 | 1016.1 |
| 20260830094600 | 72 | 274 | 0.0 | 4.0 | 0.00 | 0.00 | 0.00 | 79 | 1016.3 |
| 20260830093051 | 71 | 267 | 0.0 | 6.0 | 0.00 | 0.00 | 0.00 | 80 | 1016.5 |
| 20260830091552 | 71 | 304 | 0.0 | 4.0 | 0.00 | 0.00 | 0.00 | 80 | 1016.3 |
| 20260830090104 | 72 | 265 | 0.0 | 5.0 | 0.00 | 0.00 | 0.00 | 79 | 1016.3 |
| 20260830084544 | 71 | 253 | 1.0 | 4.0 | 0.00 | 0.00 | 0.00 | 81 | 1016.4 |
| 20260830083104 | 70 | 248 | 0.0 | 3.0 | 0.00 | 0.00 | 0.00 | 83 | 1016.5 |
| 20260830081551 | 70 | 326 | 0.0 | 3.0 | 0.00 | 0.00 | 0.00 | 83 | 1016.4 |
| 20260830080051 | 70 | 270 | 0.0 | 4.0 | 0.00 | 0.00 | 0.00 | 84 | 1016.4 |
| 20260830074550 | 69 | 199 | 0.0 | 5.0 | 0.00 | 0.00 | 0.00 | 86 | 1016.3 |
| 20260830073055 | 68 | 232 | 0.0 | 5.0 | 0.00 | 0.00 | 0.00 | 88 | 1016.3 |
| 20260830071604 | 67 | 263 | 0.0 | 4.0 | 0.00 | 0.00 | 0.00 | 91 | 1016.3 |
| 20260830070103 | 65 | 210 | 0.0 | 3.0 | 0.00 | 0.00 | 0.00 | 93 | 1016.2 |
| 20260830064550 | 65 | 188 | 0.0 | 6.0 | 0.00 | 0.00 | 0.00 | 93 | 1016.1 |
| 20260830063109 | 64 | 278 | 0.0 | 4.0 | 0.00 | 0.00 | 0.00 | 94 | 1016.1 |
| 20260830061601 | 64 | 216 | 0.0 | 5.0 | 0.00 | 0.00 | 0.00 | 94 | 1015.8 |
| 20260830060114 | 64 | 219 | 0.0 | 5.0 | 0.00 | 0.00 | 0.00 | 94 | 1015.7 |